Regional Weather Roundup
Issued by NWS

Home | Current Version | Previous Version | Text Only | Print | Product List | Glossary On
Versions: 1 2 3 4 5 6 7 8 9 10 11 12 13 14 15 16 17 18 19 20 21 22 23 24 25 26 27 28 29 30 31 32 33 34 35 36 37 38 39 40 41 42 43 44 45 46 47 48 49 50
000
ASUS45 KPSR 301510
RWRAZ

ARIZONA REGIONAL HOURLY WEATHER ROUNDUP
NATIONAL WEATHER SERVICE PHOENIX AZ
800 AM MST SAT AUG 30 2014

NOTE: FAIR INDICATES FEW OR NO CLOUDS BELOW 12,000 FEET WITH NO
SIGNIFICANT WEATHER AND/OR OBSTRUCTIONS TO VISIBILITY.

AZZ001>003-036-301600-
NORTHWEST ARIZONA

CITY           SKY/WX    TMP DP  RH WIND       PRES   REMARKS
BULLHEAD CITY  SUNNY     82  43  24 CALM      29.78S
KINGMAN        SUNNY     82  36  19 SE13      29.98R
$$

AZZ004>008-015-016-018-301600-
NORTH CENTRAL ARIZONA

CITY           SKY/WX    TMP DP  RH WIND       PRES   REMARKS
GRAND CANYON   SUNNY     66  43  43 CALM      30.25R
WILLIAMS       SUNNY     63  45  51 SE7       30.30F
PRESCOTT       SUNNY     69  45  41 NW3       30.13R
FLAGSTAFF      SUNNY     64  45  49 CALM      30.27S
PAYSON         SUNNY     75  37  25 CALM      30.16R
PAGE           SUNNY     73  39  29 VRB3      30.05S
$$

AZZ009>014-017-301600-
NORTHEAST ARIZONA

CITY           SKY/WX    TMP DP  RH WIND       PRES   REMARKS
WINSLOW        SUNNY     65  45  48 SE10      30.14S
SAINT JOHNS    SUNNY     65  47  52 CALM      30.19R
WINDOW ROCK    SUNNY     62  36  37 CALM      30.27
SHOW LOW       SUNNY     68  43  40 S5        30.26R
$$

AZZ023-301600-
GREATER PHOENIX AREA

CITY           SKY/WX    TMP DP  RH WIND       PRES   REMARKS
PHOENIX        MOSUNNY   87  46  24 E9        29.81S
BUCKEYE          N/A     82  57  42 CALM      29.82R
GLENDALE       MOSUNNY   84  54  34 CALM      29.84R
DEER VALLEY    SUNNY     86  48  26 CALM      29.84R
SCOTTSDALE     SUNNY     85  53  33 CALM      29.86R
MESA-FALCON    SUNNY     84  46  26 N7        29.84S
MESA-GATEWAY   SUNNY     81  43  26 SE6       29.86S
CHANDLER       MOSUNNY   82  55  39 E6        29.84R
$$

AZZ027-028-301600-
SOUTHWEST MARICOPA COUNTY AND PINAL COUNTY

CITY           SKY/WX    TMP DP  RH WIND       PRES   REMARKS
CASA GRANDE    SUNNY     82  46  28 E5        29.86R
$$

AZZ503-504-507>509-301600-
SOUTHEAST ARIZONA

CITY           SKY/WX    TMP DP  RH WIND       PRES   REMARKS
TUCSON         SUNNY     80  51  36 SE10      29.97R
RYAN FIELD       N/A     77  54  44 E6        29.95S
NOGALES        SUNNY     72  53  51 CALM      30.05S
SIERRA VISTA   MOSUNNY   79  45  29 CALM      30.11S
DOUGLAS        SUNNY     70  54  56 CALM      30.09R
SAFFORD        SUNNY     81  46  29 SE10      30.00R
$$

AZZ020-021-025-026-031-301600-
SOUTHWEST ARIZONA

CITY           SKY/WX    TMP DP  RH WIND       PRES   REMARKS
YUMA           SUNNY     91  47  21 SE5       29.72R
$$

CAZ031-033-041-043-047-048-061-301600-
SOUTHERN CALIFORNIA

CITY           SKY/WX    TMP DP  RH WIND       PRES   REMARKS
DOWNTOWN L.A.  SUNNY     70  63  78 CALM      29.82S
L.A. AIRPORT   MOSUNNY   69  64  84 SE3       29.84R
SAN DIEGO      PTSUNNY   69  63  81 S3        29.85R
BURBANK        SUNNY     68  57  68 CALM      29.84R
ONTARIO        MOSUNNY   69  59  70 CALM      29.85S
RIVERSIDE      SUNNY     69  57  65 CALM      29.86R
PALM SPRINGS   SUNNY     85  48  27 CALM      29.75R
EL CENTRO NAS  SUNNY     81  53  38 CALM      29.71R
IMPERIAL       SUNNY     83  50  31 SW3       29.70R
BLYTHE         SUNNY     84  46  26 E5        29.74R
NEEDLES        SUNNY     89  36  15 NW5       29.78R
$$

NVZ020-UTZ003-301600-
SOUTHERN NEVADA-UTAH

CITY           SKY/WX    TMP DP  RH WIND       PRES   REMARKS
LAS VEGAS      PTSUNNY   85  35  16 W5        29.81R
SALT LAKE CITY CLOUDY    75  42  30 SE9       29.94R
$$

NMZ009-TXZ055-301600-
NEW MEXICO-WEST TEXAS

CITY           SKY/WX    TMP DP  RH WIND       PRES   REMARKS
ALBUQUERQUE    PTSUNNY   68  44  42 NW3       30.20R
EL PASO        MOSUNNY   78  54  43 NE5       30.08S
$$


........................KEY........................
SKY/WX - SKY CONDITION/WEATHER
TMP    - TEMPERATURE IN FAHRENHEIT
DP     - DEW POINT IN FAHRENHEIT
RH     - RELATIVE HUMIDITY IN PERCENT
WIND   - DIRECTION AND SPEED IN MILES PER HOUR (MPH)
VRB    - VARIABLE WIND DIRECTION
PRES   - MEAN SEA LEVEL PRESSURE IN INCHES OF MERCURY
         F - FALLING PRESSURE   R - RISING PRESSURE
         S - STEADY PRESSURE
VSB    - VISIBILITY IN MILES
HX     - HEAT INDEX IN FAHRENHEIT
WCI    - WIND CHILL INDEX IN FAHRENHEIT
TC     - TEMPERATURE IN CELSIUS WHICH IS ALSO KNOWN AS
         TEMPERATURE IN CENTIGRADE
AFB    - AIR FORCE BASE
         LUKE AFB IS LUKE AIR FORCE BASE
         DAVIS-MONTHAN IS DAVIS-MONTHAN AIR FORCE BASE
NAS    - NAVAL AIR STATION
         EL CENTRO NAS IS EL CENTRO NAVAL AIR STATION
N/A    - NOT AVAILABLE


USA.gov is the U.S. government's official web portal to all federal, state and local government web resources and services.